Letzte Messung
Zeitpunkt Temperatur Luftfeuchte Luftdruck
2021-03-08 04:20:00 1.18 ℃ 81.68 % 1023.39 hPa

Zeitpunkt Temperatur Luftfeuchte Luftdruck
2021-03-08 04:20:00 1.18 ℃ 81.68 % 1023.39 hPa
2021-03-08 04:10:00 1.13 ℃ 81.15 % 1023.34 hPa
2021-03-08 04:00:00 1.09 ℃ 80.96 % 1023.34 hPa
2021-03-08 03:50:00 1.24 ℃ 80.22 % 1023.29 hPa
2021-03-08 03:40:00 1.05 ℃ 80.47 % 1023.25 hPa
2021-03-08 03:30:00 0.94 ℃ 80.52 % 1023.24 hPa
2021-03-08 03:20:00 1.11 ℃ 79.64 % 1023.26 hPa
2021-03-08 03:10:00 1.26 ℃ 78.97 % 1023.24 hPa
2021-03-08 03:00:00 1.47 ℃ 77.7 % 1023.24 hPa
2021-03-08 02:50:00 1.46 ℃ 77.81 % 1023.26 hPa
2021-03-08 02:40:00 1.43 ℃ 78.6 % 1023.26 hPa
2021-03-08 02:30:00 1.19 ℃ 78.51 % 1023.27 hPa
2021-03-08 02:10:00 1.37 ℃ 77 % 1023.29 hPa
2021-03-08 02:00:00 1.43 ℃ 76.3 % 1023.29 hPa
2021-03-08 01:50:00 1.52 ℃ 75.79 % 1023.27 hPa
2021-03-08 01:40:00 1.59 ℃ 75.25 % 1023.21 hPa
2021-03-08 01:30:00 1.58 ℃ 74.95 % 1023.12 hPa
2021-03-08 01:20:00 1.67 ℃ 74.01 % 1023.04 hPa
2021-03-08 01:10:00 1.71 ℃ 73.47 % 1023 hPa
2021-03-08 01:00:00 1.72 ℃ 72.96 % 1022.99 hPa
2021-03-08 00:50:00 1.8 ℃ 72.3 % 1023 hPa
2021-03-08 00:40:00 1.91 ℃ 71.45 % 1022.95 hPa
2021-03-08 00:30:00 1.97 ℃ 70.88 % 1022.91 hPa
2021-03-08 00:20:00 2.03 ℃ 70.32 % 1022.88 hPa
2021-03-07 23:50:01 2.18 ℃ 69.57 % 1022.78 hPa
2021-03-07 23:40:01 2.29 ℃ 68.78 % 1022.72 hPa
2021-03-07 23:30:01 2.42 ℃ 68.4 % 1022.64 hPa
2021-03-07 23:20:01 2.58 ℃ 67.64 % 1022.6 hPa
2021-03-07 23:10:01 2.65 ℃ 67.18 % 1022.54 hPa
2021-03-07 23:00:01 2.79 ℃ 66.77 % 1022.44 hPa
2021-03-07 22:50:01 2.88 ℃ 66.86 % 1022.34 hPa
2021-03-07 22:40:01 2.94 ℃ 67.46 % 1022.21 hPa
2021-03-07 22:30:01 3 ℃ 69.3 % 1022.13 hPa
Durchschnitt 1.78 ℃ 74.33 % 1022.99 hPa

weatherino

Wetterdaten aus der Harmsstraße 54 in 24114 Kiel (4. OG, außen), die per BME280 und einem ESP-32 erhoben werden.

Unter https://wetter.janbpunkt.de/weather.xml steht eine entsprechende XML bereit, die das jüngste Messergebnis enthält.

Da der weatherino ab und zu ausfällt/gewartet wird, können Messpunkte fehlen.

Mehr zu dem Projekt findet man hier.

SSL, keine Cookies, keine IP-Adress-Speicherung, keine Verarbeitung von personenbezogenen Daten

Impressum

Extremwerte

Nachfolgend die Extremwerte seit Aufzeichnung.

BezeichnungWertZeitpunkt
Niedrigste Temperatur-6.4 ℃2021-02-13 07:00:53
Höchste Temperatur29.88 ℃2020-08-16 14:01:47
Niedrigster Luftdruck979.11 hPa2021-01-22 05:21:46
Höchster Luftdruck1074.18 hPa2020-12-24 17:16:12
Niedrigste Luftfeuchtigkeit22.3 %2020-04-13 15:26:13
Höchste Luftfeuchtigkeit100 %2020-06-11 06:39:27